DW8155 Weather Reports


time (UTC)temp
F
wind
direction
speed
knots
gust
knots
rain 1hr
in
rain 24hr
in
rain mn
in
humidity
%
barometer
mb
20260506111508 45 346 4.3 7.0 0.02 0.73 0.38 97 1006.6
20260506110007 45 34 3.5 7.0 0.03 0.73 0.38 96 1006.1
20260506104505 45 51 0.9 6.1 0.04 0.73 0.38 97 1005.1
20260506103004 46 325 3.5 6.1 0.05 0.72 0.37 96 1005.5
20260506101500 46 325 2.6 5.2 0.04 0.71 0.36 97 1005.9
20260506100059 47 334 3.5 7.8 0.04 0.70 0.35 97 1006.0
20260506094621 47 347 2.6 7.8 0.03 0.69 0.34 97 1005.7
20260506093054 48 332 1.7 8.7 0.03 0.67 0.32 97 1005.4
20260506091551 49 345 3.5 7.8 0.05 0.67 0.32 97 1005.3
20260506090049 49 322 2.6 6.1 0.06 0.66 0.31 97 1005.2
20260506084548 49 355 2.6 6.1 0.07 0.66 0.31 97 1004.9
20260506083047 49 344 2.6 6.1 0.06 0.64 0.28 97 1005.0
20260506081545 49 329 2.6 5.2 0.05 0.62 0.27 97 1005.0
20260506073040 50 330 1.7 4.3 0.05 0.57 0.23 97 1004.8
20260506071541 50 321 1.7 5.2 0.05 0.56 0.22 97 1004.9
20260506061533 51 57 1.7 3.5 0.07 0.52 0.17 97 1005.1
20260506044514 57 319 2.6 5.2 0.06 0.40 0.05 97 1006.0
20260506043013 57 253 0.9 2.6 0.05 0.38 0.03 97 1006.0
20260506041514 57 271 0.9 2.6 0.05 0.37 0.02 97 1006.2
20260506040010 57 266 0.9 2.6 0.04 0.35 0.00 97 1006.4
20260506034510 58 275 2.6 5.2 0.04 0.34 0.34 97 1006.4
20260506033007 58 244 2.6 4.3 0.05 0.33 0.33 97 1006.6
20260506031507 58 270 1.7 6.1 0.06 0.32 0.32 97 1006.7
20260506030014 58 217 4.3 7.8 0.06 0.31 0.31 97 1006.8
20260506024516 58 224 0.9 3.5 0.05 0.30 0.30 96 1006.7
20260506023005 57 224 0.9 1.7 0.04 0.28 0.28 96 1006.5
20260506021504 58 223 0.9 3.5 0.04 0.26 0.26 96 1006.5
20260506020005 58 227 0.9 2.6 0.03 0.25 0.25 96 1006.6
20260506014502 58 217 1.7 4.3 0.03 0.25 0.25 95 1006.6
20260506013002 58 263 0.9 2.6 0.03 0.24 0.24 95 1006.6
20260506011600 58 295 0.0 0.9 0.07 0.22 0.22 95 1006.4
20260506010059 58 311 0.0 0.9 0.18 0.22 0.22 94 1006.2
20260506004559 58 311 0.0 2.6 0.18 0.22 0.22 94 1006.2
20260506003057 59 312 1.7 7.0 0.17 0.21 0.21 92 1006.5
20260506001556 62 286 8.7 13.9 0.09 0.13 0.13 87 1006.8
20260506000052 64 259 0.0 0.0 0.00 0.04 0.04 83 1005.2
20260505234554 64 259 0.0 2.6 0.00 0.04 0.04 82 1005.3
20260505233050 65 257 0.9 1.7 0.00 0.04 0.04 80 1005.4
20260505231600 65 257 0.9 2.6 0.00 0.04 0.04 79 1005.5
20260505230057 66 227 0.0 0.9 0.00 0.04 0.04 77 1005.5
20260505224549 66 227 0.0 0.0 0.00 0.04 0.04 77 1005.5
20260505223048 66 227 0.9 3.5 0.00 0.04 0.04 76 1005.8
20260505221548 66 229 0.9 2.6 0.00 0.04 0.04 79 1005.9
20260505220047 65 229 0.9 3.5 0.00 0.04 0.04 80 1005.7
20260505214549 64 267 0.9 2.6 0.00 0.04 0.04 82 1005.8
20260505213054 64 275 0.9 2.6 0.00 0.04 0.04 83 1005.8
20260505211550 64 272 1.7 3.5 0.00 0.04 0.04 83 1005.9
20260505210046 64 246 1.7 4.3 0.00 0.04 0.04 83 1006.0
20260505204545 64 275 1.7 4.3 0.00 0.04 0.04 83 1006.1
20260505203046 65 253 2.6 6.1 0.00 0.04 0.04 78 1006.1
20260505201547 67 223 3.5 9.6 0.00 0.04 0.04 69 1006.0
20260505200046 68 221 3.5 8.7 0.00 0.04 0.04 67 1005.9
20260505194546 68 209 2.6 7.0 0.00 0.04 0.04 68 1006.0
20260505193043 68 221 3.5 9.6 0.00 0.04 0.04 67 1006.4
20260505191554 68 225 4.3 8.7 0.00 0.04 0.04 66 1006.4
20260505190041 68 234 5.2 9.6 0.00 0.04 0.04 66 1006.6
20260505184541 68 246 4.3 10.4 0.00 0.04 0.04 66 1006.8
20260505183041 67 261 6.1 12.2 0.00 0.04 0.04 65 1006.8
20260505181540 69 236 9.6 18.2 0.00 0.04 0.04 62 1006.6
20260505180051 70 219 7.8 20.0 0.00 0.04 0.04 63 1006.6
20260505174548 69 211 10.4 20.9 0.00 0.04 0.04 63 1006.6
20260505173039 70 228 9.6 14.8 0.00 0.04 0.04 62 1006.5
20260505171537 70 228 7.8 20.0 0.00 0.04 0.04 64 1006.6
20260505170038 70 208 11.3 16.5 0.00 0.04 0.04 61 1006.4
20260505164540 70 207 12.2 24.3 0.00 0.04 0.04 62 1006.4
20260505163035 70 236 11.3 20.0 0.00 0.04 0.04 63 1006.2
20260505161534 70 221 12.2 20.9 0.01 0.04 0.04 62 1006.1
20260505153026 68 217 11.3 26.1 0.01 0.04 0.04 69 1006.4
20260505151523 67 205 13.0 22.6 0.00 0.03 0.03 71 1006.5
20260505124505 64 218 8.7 14.8 0.00 0.00 0.00 71 1006.0
20260505123001 64 206 8.7 16.5 0.00 0.00 0.00 71 1006.0
20260505121559 64 202 7.8 14.8 0.00 0.00 0.00 70 1006.0
20260505114602 63 201 9.6 14.8 0.00 0.00 0.00 72 1006.0
20260505113057 62 215 7.8 14.8 0.00 0.00 0.00 74 1006.0